Powrót do katalogu

CZ-2C DEB

AktywnyPO
NORAD 43534·DEBRIS·🇨🇳 China

Wystrzelony Jul 9, 2018 z Jiuquan Satellite Launch Center

Loading…

Następne Przeloty (najbliższe 24 godziny)

TLE

ŚwieżeSource: Space-Track

Epoka: Sep 14, 2026, 00:07 UTC

1 43534U 18056F   26257.00486920  .00023388  00000-0  67738-3 0  9998
2 43534  98.1126  96.4334 0011313  66.5686 293.6744 15.35525192447416

Śledź CZ-2C DEB w czasie rzeczywistym z AllMySat

Download on the App Store